Hourly Weather Roundup
Issued by NWS Central Illinois

Home | Current Version | Previous Version | Text Only | Print | Product List | Glossary On
Versions: 1 2 3 4 5 6 7 8 9 10 11 12 13 14 15 16 17 18 19 20 21 22 23 24 25 26 27 28 29 30 31 32 33 34 35 36 37 38 39 40 41 42 43 44 45 46 47 48 49 50
000
NZUS43 KILX 291610
HWRILX

AREA WEATHER ROUNDUP
NATIONAL WEATHER SERVICE, LINCOLN IL
1000 AM CST THU JAN 29 2015


CITY           SKY/WX    TMP DP  RH WIND       PRES   REMARKS
BLOOMINGTON    CLOUDY    35  31  86 NW23      29.97R FOG     WCI  23
CHAMPAIGN      CLOUDY    35  32  88 NW23G38   29.94R FOG     WCI  23
DECATUR        CLOUDY    37  31  78 NW22G29   29.99R HAZE    WCI  26
FLORA          CLOUDY    40  35  82 W13G22    30.04R WCI  32
GALESBURG      CLOUDY    35  31  87 NW20G26   30.03R WCI  24
JACKSONVILLE   CLOUDY    39  32  74 NW20G25   30.06R WCI  30
LACON          CLOUDY    34  29  82 NW15G22   29.98R WCI  24
LAWRENCEVILLE  CLOUDY    41  35  79 W17G31    29.99R HAZE    WCI  32
LITCHFIELD     CLOUDY    37  31  80 NW18G30   30.05R WCI  26
$$


CITY           SKY/WX    TMP DP  RH WIND       PRES   REMARKS
LINCOLN        CLOUDY    38  32  80 NW8G18    30.01R WCI  32
MACOMB         CLOUDY    36  32  86 NW21G29   30.09R WCI  25
MATTOON        CLOUDY    36  31  82 NW24      29.96R HAZE    WCI  24
MT CARMEL AP   CLOUDY    43  36  75 W24       29.99R WCI  33
OLNEY-NOBLE AP CLOUDY    37  34  87 W24G30    30.01R WCI  26
PARIS          CLOUDY    36  33  91 W23G30    29.93R FOG     WCI  24
PEORIA         CLOUDY    37  29  72 NW16G26   30.00R WCI  28
PONTIAC        CLOUDY    35  32  88 NW17G28   29.94R FOG     WCI  25
RANTOUL        CLOUDY    36  32  87 NW21G33   29.92R FOG     WCI  25
ROBINSON       CLOUDY    39  35  84 W20G29    29.98R FOG     WCI  30
SPRINGFIELD    CLOUDY    38  31  76 NW16G26   30.02R WCI  29
TAYLORVILLE    CLOUDY    36  32  87 NW22G31   30.02R WCI  24
$$

...REGIONAL REPORTS...


CITY           SKY/WX    TMP DP  RH WIND       PRES   REMARKS
CHICAGO O`HARE CLOUDY    33  27  78 NW23      29.86R WCI  21
KANKAKEE       CLOUDY    34  31  86 NW16G29   29.88R WCI  24
MOLINE         CLOUDY    35  29  78 NW15      30.03R WCI  25
MOUNT VERNON   CLOUDY    41  30  65 W8G21     30.06R
PITTSFIELD     CLOUDY    39  31  74 NW12G21   30.11R WCI  31
QUINCY         CLOUDY    37  31  78 NW17G26   30.11R WCI  27
ROCKFORD       CLOUDY    34  26  72 NW15      29.95R WCI  24
$$


CITY           SKY/WX    TMP DP  RH WIND       PRES   REMARKS
BURLINGTON     CLOUDY    37  32  82 NW15G24   30.08R WCI  28
CEDAR RAPIDS   CLOUDY    34  32  92 NW18      30.07R WCI  23
DES MOINES     CLOUDY    35  27  72 N15G25    30.22R WCI  25
KIRKSVILLE     CLOUDY    37  30  75 NW15G25   30.19R WCI  28
OTTUMWA        CLOUDY    35  29  78 NW20G28   30.16R WCI  24
ST LOUIS       CLOUDY    40  30  67 NW16G26   30.11R WCI  31
$$


CITY           SKY/WX    TMP DP  RH WIND       PRES   REMARKS
TERRE HAUTE    CLOUDY    38  32  79 W18G30    29.92R HAZE    WCI  28
EVANSVILLE     CLOUDY    50  38  63 NW14G23   30.00R
INDIANAPOLIS   CLOUDY    39  34  82 W23G32    29.83R WCI  28
LAFAYETTE      CLOUDY    36  32  85 W15G24    29.83R WCI  27
MADISON        CLOUDY    32  26  78 NW14G24   29.94R WCI  22
MILWAUKEE      CLOUDY    32  25  75 NW16G25   29.88R HAZE    WCI  21
$$





USA.gov is the U.S. government's official web portal to all federal, state and local government web resources and services.